星链-3352 (STARLINK-3352 )

导读

STARLINK-3352是美国太空探索技术公司(SpaceX)星链星座中的一颗卫星,于2022年1月19日发射升空,属于星链互联网卫星集群的组成部分,旨在为全球提供低延迟、高速率的宽带互联网服务,该星持续在轨运行,服务全球多地的卫星互联网接入。

Basic Information
目录编号:
51147
目录名称:
STARLINK-3352
国际标识:
2022-005AV
轨道中心:
EARTH
卫星名称:
星链-3352
卫星全名:
星链-3352 (STARLINK-3352 )
卫星状态:
在轨 (已飞行1610 天)
发射日期:
2022-01-19 UTC
国别 :
美国 (US)
星等 :
--
Orbit Information
数据来源 国际轨道数据 AOE轨道数据
星历时间 2026-06-17T15:24:38+0800
13小时前
查看轨道信息
2026-06-17T02:00:00+0800
1天前
查看轨道信息
半长轴 6848.773km 6848.948km
偏心率 0.0002302 0.000253
轨道倾角 53.187° 53.187°
近地点辐角 346.949° 342.402°
升交点赤经 195.639° 198.238°
平近点角 13.145° 174.768°
近地点 469.059km 469.078km
远地点 472.213km 472.544km
周期 94.011分钟 94.015分钟
每日圈数 15.31735 15.316765
Detailed Information
固有亮度:
5
最大亮度:
2.5
卫星平台:
Starlink v1.5
覆盖范围:
全球
运营商:
太空探索技术公司
运营商所在国:
美国
制造商(研发单位):
太空探索技术公司
制造商所在国:
美国
使用方式:
暂无
Satellite Introduction
星链(Starlink)计划是由太空探索技术公司(SpaceX)提出的一个巨型低轨卫星互联网星座项目,计划在2019年至2024年间在太空搭建由约1.2万颗卫星组成的“星链”网络,其中1584颗将部署在地球上空550千米处的近地轨道,并从2020年开始工作。该卫星仍在工作。
2D Orbit Map
3D Orbit Map
Orbit Altitude Analysis Chart
Orbit Inclination Analysis Chart
Orbit Comprehensive Analysis Chart
View Comprehensive Chart